Location: Caltech
(34.1382°N, 118.1253°W)
Time: 04:26:28
(UTC-07:00)

Cosmos 1980 Rocket - Visible Passes

Search period start: 23 August 2014 00:00
Search period end: 02 September 2014 00:00
Orbit: 828 x 852 km, 71.0° (Epoch: 22 August)

Date Brightness Start Highest point End Pass type
(mag) Time Alt. Az. Time Alt. Az. Time Alt. Az.
23 Aug 2.9 04:19:46 23° S 04:22:59 49° ESE 04:28:24 10° NNE visible
24 Aug 3.0 04:05:14 31° SSE 04:07:25 46° ESE 04:12:47 10° NE visible
24 Aug 3.6 05:47:23 10° WSW 05:51:37 22° WNW 05:55:53 10° N visible
25 Aug 3.1 03:50:37 37° SE 03:51:51 42° ESE 03:57:09 10° NE visible
25 Aug 3.5 05:32:26 13° WSW 05:35:59 23° WNW 05:40:24 10° N visible
26 Aug 3.1 03:35:57 39° ESE 03:36:17 40° ESE 03:41:30 10° NE visible
26 Aug 3.4 05:17:45 18° W 05:20:22 24° WNW 05:24:56 10° N visible
27 Aug 3.4 03:21:13 36° E 03:21:13 36° E 03:25:52 10° NE visible
27 Aug 3.3 05:03:01 22° W 05:04:45 26° WNW 05:09:26 10° N visible
28 Aug 3.7 03:06:26 31° ENE 03:06:26 31° ENE 03:10:13 10° NE visible
28 Aug 3.2 04:48:14 26° WNW 04:49:08 28° WNW 04:53:56 10° N visible
29 Aug 4.0 02:51:35 25° ENE 02:51:35 25° ENE 02:54:33 10° NE visible
29 Aug 3.2 04:33:23 29° WNW 04:33:31 29° WNW 04:38:26 10° N visible
30 Aug 4.4 02:36:42 20° ENE 02:36:42 20° ENE 02:38:53 10° NE visible
30 Aug 3.2 04:18:30 31° NW 04:18:30 31° NW 04:22:56 10° N visible
31 Aug 4.6 02:21:47 16° NE 02:21:47 16° NE 02:23:13 10° NE visible
31 Aug 3.4 04:03:34 30° NW 04:03:34 30° NW 04:07:25 10° N visible
01 Sep 4.9 02:06:49 13° NE 02:06:49 13° NE 02:07:31 10° NE visible
01 Sep 3.6 03:48:36 28° NNW 03:48:36 28° NNW 03:51:54 10° N visible
